COSMOS 249 DEB, 3794

Orbit data source: Space-Track

COSMOS 249 DEB, 3794 is space debris in LEO originally from a launch on Sun, 20 Oct 1968 UTC launched from the Tyuratam Missile And Space Complex (TTMTR). Debris objects in space refer to the collection of defunct objects orbiting the Earth. Examples of debris include non-operational satellites, rocket bodies, and fragments generated from explosions, collisions, or faulty payload assembly.

Loading next visibility...
Identifier
3794, 1968-091BB
Orbit
LEO
Country
Flag of CISCIS
Related business
Manufacturer
Unknown
Mission
Spacecraft
Bus & Motor
Unknown
Mass
Unknown
Launch date (UTC)
1968-10-20 (58 years ago)
Launch vehicle
Unknown
Launch site
Tyuratam Missile And Space Complex (TTMTR)
Object type
Payload
Rocket body
Debris
Shape & HBR
Unknown shape, 0.1 m
Radar Cross Section
Medium (>0.1 m² and <1 m²)

Expand to show TLE details & history
Last TLE update: 6 hours ago

TLE from 6 hours ago
0 COSMOS 249 DEB
1  3794U 68091BB  26222.83569257  .00000035  00000-0  11170-3 0  9997
2  3794  62.2704 157.0108 0562456 263.2417  90.4314 13.31074172717354
Epoch: 2026-08-10T20:03Z
TLE epoch observation values (Epoch: 2026-08-10T20:03:23.838Z)
Latitude
-0.00001°
Longitude
-103.15115°
Altitude
1,171.287 km
Speed
7.255 km/s
True Right ascension
10h 28m 02s
True Declination
0° 00' 00"
Sunlit
Object was in daylight at epoch
Visualization orbit readout
Latitude
Unknown
Longitude
Unknown
Altitude
Unknown
Speed
Unknown
Apparent Right ascension
Unknown
Apparent Declination
Unknown
Sunlit
N/A
Visualization observer readout
Local Sidereal Time
16:12:29
Azimuth
Unknown
Elevation
Unknown
Doppler factor
Unknown
Orbital elements
Apogee altitude
1,564.645 km
Perigee altitude
718.731 km
Semi-major axis
7,519.825 km
Eccentricity
0.05625
Inclination
62.2704°
RAAN
157.0108°
Arg. of periapsis
263.2417°
True anomaly
96.85957°
Mean anomaly
90.4314°
Eccentric anomaly
93.64751°
Mean motion
3.32837 °/min
Orbital period
108.16 mins
BSTAR
0.0001117
Loading maneuver chart data...
Computing Atmospheric mass density...

Documentation

Showing up to 5 results
|